Location: Wingville
(42.9917°N, 90.4915°W)
Time: 14:18:07
(UTC+00:00)

LO-87 - Pass Details

Date: 27 June 2022
Orbit: 451 x 466 km, 97.4° (Epoch: 08 August)

Event Time Altitude Azimuth Distance (km) Brightness Sun altitude
Exits shadow 05:15:58 42° 51° (NE) 665 ? -22.7°
Drops below altitude 10° 05:18:52 10° 0° (N) 1,614 ? -22.8°
Sets 05:20:59 0° 354° (N) 2,498 ? -22.9°
